Voltar ao catálogo

STARLINK-35849

AtivoComunicaçõesVLEO
NORAD 66348·PAYLOAD·🇺🇸 United States

Lançado Nov 6, 2025 de Vandenberg Space Force Base

Loading…

Próximas Passagens (próximas 24 horas)

TLE

AtualizadoSource: CelesTrak SupGP

Época: Sep 15, 2026, 04:06 UTC

1 66348C 25254A   26258.17131944 -.00022302  00000+0 -65909-3 0  2588
2 66348  53.1575  70.3474 0001119  92.3792 286.4719 15.34393596    10

Acompanhe STARLINK-35849 em tempo real com AllMySat

Download on the App Store